TITAN 3C TRANSTAGE DEB, 39298

Orbit data source: Space-Track

TITAN 3C TRANSTAGE DEB, 39298 is space debris in GEO originally from a launch on Thu, 26 Sep 1968 UTC launched from the Air Force Eastern Test Range (AFETR). Debris objects in space refer to the collection of defunct objects orbiting the Earth. Examples of debris include non-operational satellites, rocket bodies, and fragments generated from explosions, collisions, or faulty payload assembly.

Not visible in the next 10 days
Identifier
39298, 1968-081AJ
Orbit
GEO
Country
Flag of USUS
Related business
Manufacturer
Unknown
Mission
Spacecraft
Bus & Motor
Unknown
Mass
Unknown
Launch date (UTC)
1968-09-26 (58 years ago)
Launch vehicle
Unknown
Launch site
Air Force Eastern Test Range (AFETR)
Object type
Payload
Rocket body
Debris
Shape & HBR
Unknown shape, 1.1 m
Radar Cross Section
Medium (>0.1 m² and <1 m²)

Expand to show TLE details & history
Last TLE update: 17 hours ago

TLE from 17 hours ago
0 TITAN 3C TRANSTAGE DEB
1 39298U 68081AJ  26257.75118083 -.00000138  00000-0  00000-0 0  9992
2 39298   1.7767  31.0534 0148623 317.2665  83.0953  1.00184010 67186
Epoch: 2026-09-14T18:01Z
TLE epoch observation values (Epoch: 2026-09-14T18:01:42.023Z)
Latitude
1.16966°
Longitude
168.94435°
Altitude
35,743.358 km
Speed
3.079 km/s
True Right ascension
04h 52m 23s
True Declination
1° 10' 07"
Sunlit
Object was in daylight at epoch
Visualization orbit readout
Latitude
Unknown
Longitude
Unknown
Altitude
Unknown
Speed
Unknown
Apparent Right ascension
Unknown
Apparent Declination
Unknown
Sunlit
N/A
Visualization observer readout
Local Sidereal Time
03:23:16
Azimuth
Unknown
Elevation
Unknown
Doppler factor
Unknown
Orbital elements
Apogee altitude
36,439.335 km
Perigee altitude
35,185.241 km
Semi-major axis
42,190.425 km
Eccentricity
0.01486
Inclination
1.7767°
RAAN
31.0534°
Arg. of periapsis
317.2665°
True anomaly
84.78958°
Mean anomaly
83.0953°
Eccentric anomaly
83.94209°
Mean motion
0.25045 °/min
Orbital period
1,437.41 mins
BSTAR
0
Loading maneuver chart data...
Computing Atmospheric mass density...

Documentation

Showing up to 5 results
|